www.pogodaiklimat.ru

Погода и климат >> Архив погоды >> Норвегия >> Согндал аэропорт


ПОГОДА в Согндал аэропорту

  • Прогноз погоды в Согндал аэропорту
  • Монитор погоды в Согндал аэропорту

АРХИВ ПОГОДЫ в Согндал аэропорту

Время (UTC), дата Ветер
(напр.,м/с)
 
Видим.   Явления Облачность Т
(С)
Тd
(С)
f
(%)
Тe
(С)
Тes
(С)
Комфортность P
(гПа)
Po
(гПа)
Тmin
(С)
Tmax
(С)
R
(мм)
R24
(мм)
S
(см)
16 16.08 ЮЗ 2
{3}
н/о н/о +14.6 +6.2 57 +14 +14 1004.9 947.7
17 16.08 ЮВ 1
{3}
н/о н/о +13.6 +10.0 79 +14 +14 1004.8 947.5
18 16.08 ЮЗ 1
{4}
н/о н/о +12.3 +8.4 77 +12 +12 1005.1 947.5 +11.0 +15.4
19 16.08 В 1
{1}
н/о н/о +10.8 +10.7 99 +10 +10 1004.8 946.9
20 16.08 штиль 0
{1}
н/о н/о +10.2 +9.6 96 +9 +9 1004.8 946.8
21 16.08 штиль 0
{1}
н/о н/о +9.9 +9.9 100 +9 +9 1004.8 946.7
22 16.08 З 1
{1}
н/о н/о +9.7 +9.7 100 +9 +9 1004.4 946.3
23 16.08 В 1
{2}
н/о н/о +9.4 +9.4 100 +9 +9 1003.9 945.7
00 17.08 В 2
{3}
н/о н/о +10.1 +9.5 96 +8 +8 1002.8 944.9
01 17.08 В 3
{4}
н/о н/о +10.1 +10.1 100 +8 +8 1001.9 944.1
02 17.08 СВ 2
{4}
н/о н/о +10.1 +10.1 100 +8 +8 1001.2 943.3
03 17.08 СВ 2
{4}
н/о н/о +9.9 +9.9 100 +8 +8 1000.7 942.9
04 17.08 СВ 2
{4}
н/о н/о +9.7 +9.7 100 +8 +8 1000.0 942.2
05 17.08 В 2
{4}
н/о н/о +9.9 +9.9 100 +8 +8 999.2 941.5
06 17.08 СВ 4
{5}
н/о н/о +10.6 +9.5 93 +8 +8 998.4 940.9 +9.4 +12.3
07 17.08 СВ 3
{5}
н/о н/о +10.8 +10.5 98 +9 +9 997.6 940.1
08 17.08 СВ 3
{6}
н/о н/о +11.3 +10.2 93 +9 +9 996.7 939.4
09 17.08 СВ 4
{5}
н/о н/о +12.0 +10.1 88 +10 +10 995.9 938.7
10 17.08 СВ 4
{8}
н/о н/о +12.1 +10.8 92 +10 +10 995.1 938.0
11 17.08 СВ 4
{7}
н/о н/о +12.8 +11.7 93 +11 +11 994.3 937.4
12 17.08 В 2
{8}
н/о н/о +11.9 +11.9 100 +11 +11 994.4 937.3
13 17.08 В 3
{5}
н/о н/о +12.7 +12.7 100 +11 +11 993.5 936.6
14 17.08 ЮВ 1
{5}
н/о н/о +12.9 +12.9 100 +13 +13 994.1 937.2
15 17.08 ЮЗ 2
{4}
н/о н/о +13.6 +13.6 100 +13 +13 994.4 937.7
16 17.08 ЮЗ 3
{6}
н/о н/о +13.9 +13.4 97 +13 +13 994.3 937.6
17 17.08 ЮЗ 3
{7}
н/о н/о +12.8 +12.2 96 +11 +11 995.1 938.2
18 17.08 ЮЗ 1
{7}
н/о н/о +12.0 +12.0 100 +12 +12 995.4 938.3 +10.3 +14.3
19 17.08 ЮЗ 1
{4}
н/о н/о +10.9 +10.9 100 +10 +10 995.7 938.3
20 17.08 ЮЗ 1
{2}
н/о н/о +10.9 +10.9 100 +10 +10 995.9 938.5
21 17.08 ЮЗ 3
{7}
н/о н/о +10.9 +10.9 100 +9 +9 996.9 939.5
22 17.08 ЮЗ 5
{10}
н/о н/о +10.9 +9.5 91 +8 +8 997.4 940.0
23 17.08 ЮЗ 5
{8}
н/о н/о +9.9 +9.1 95 +7 +7 998.5 940.8
00 18.08 ЮЗ 2
{10}
н/о н/о +8.9 +7.7 92 +7 +7 999.5 941.5
01 18.08 ЮЗ 3
{4}
н/о н/о +8.0 +7.1 94 +5 +5 999.7 941.5
02 18.08 ЮЗ 1
{4}
н/о н/о +7.2 +7.2 100 +6 +6 1000.2 941.8
03 18.08 ЮЗ 1
{1}
н/о н/о +7.5 +7.5 100 +6 +6 1000.1 941.8
04 18.08 штиль 0
{2}
н/о н/о +7.6 +7.6 100 +6 +6 1000.1 941.9
05 18.08 штиль 0
{1}
н/о н/о +8.2 +8.2 100 +7 +7 1000.1 942.0
06 18.08 СВ 1
{4}
н/о н/о +10.3 +9.1 92 +10 +10 999.9 942.1 +6.8 +11.9
07 18.08 В 2
{3}
н/о н/о +10.6 +9.2 91 +9 +9 999.8 942.1
08 18.08 В 3
{4}
н/о н/о +12.0 +6.9 71 +10 +10 999.5 942.2
09 18.08 В 3
{4}
н/о н/о +12.8 +7.9 72 +11 +11 999.5 942.3
10 18.08 СВ 3
{4}
н/о н/о +14.2 +6.3 59 +13 +13 999.0 942.1
11 18.08 СВ 3
{5}
н/о н/о +14.7 +8.0 64 +14 +14 998.5 941.7
12 18.08 СВ 3
{5}
н/о н/о +16.0 +5.9 51 +16 +16 997.9 941.4
13 18.08 ЮЗ 2
{4}
н/о н/о +16.3 +5.0 47 +17 +17 997.6 941.2
14 18.08 З 2
{3}
н/о н/о +15.6 +6.1 53 +16 +16 997.6 941.0
15 18.08 З 3
{5}
н/о н/о +15.7 +6.2 53 +15 +15 997.5 941.0
16 18.08 З 4
{7}
н/о н/о +15.1 +5.6 53 +14 +14 997.5 940.9
17 18.08 З 4
{8}
н/о н/о +13.0 +7.7 70 +11 +11 998.3 941.2
18 18.08 В 2
{8}
н/о н/о +12.8 +8.1 73 +12 +12 997.9 940.8 +10.3 +17.8
19 18.08 В 2
{4}
н/о н/о +11.8 +8.5 80 +11 +11 998.0 940.7
20 18.08 СВ 2
{4}
н/о н/о +11.0 +8.1 82 +10 +10 998.3 940.8
21 18.08 В 1
{3}
н/о н/о +9.6 +9.3 98 +9 +9 998.4 940.6
22 18.08 СВ 1
{3}
н/о н/о +10.3 +9.5 95 +10 +10 998.2 940.6
23 18.08 В 2
{2}
н/о н/о +8.7 +8.7 100 +7 +7 998.3 940.4
00 19.08 СВ 1
{4}
н/о н/о +9.3 +9.3 100 +8 +8 998.0 940.2
01 19.08 штиль 0
{2}
н/о н/о +9.3 +9.3 100 +8 +8 997.8 940.1
02 19.08 ЮВ 1
{3}
н/о н/о +9.6 +9.0 96 +9 +9 997.7 939.9
03 19.08 СВ 2
{2}
н/о н/о +9.1 +9.1 100 +7 +7 997.4 939.6
04 19.08 Ю 1
{3}
н/о н/о +9.4 +9.0 97 +9 +9 997.4 939.6
05 19.08 З 1
{3}
н/о н/о +9.7 +7.0 83 +9 +9 997.4 939.7
06 19.08 ЮЗ 2
{5}
н/о н/о +11.4 +6.3 71 +10 +10 997.1 939.8 +8.7 +13.1
07 19.08 ЮЗ 3
{6}
н/о н/о +12.0 +5.6 65 +11 +11 997.1 939.8
08 19.08 З 3
{7}
н/о н/о +10.7 +8.5 86 +9 +9 997.9 940.4
09 19.08 З 6
{9}
н/о н/о +9.8 +7.6 86 +6 +6 998.9 941.1
10 19.08 З 5
{8}
н/о н/о +11.0 +6.6 74 +8 +8 999.0 941.4
11 19.08 ЮЗ 2
{6}
н/о н/о +11.5 +8.0 79 +10 +10 999.6 942.1
12 19.08 З 3
{9}
н/о н/о +11.9 +8.4 79 +10 +10 1000.2 942.8
13 19.08 З 4
{5}
н/о н/о +11.5 +9.6 88 +9 +9 1000.9 943.4
14 19.08 ЮЗ 2
{7}
н/о н/о +10.9 +9.8 93 +9 +9 1001.8 944.1
15 19.08 ЮЗ 3
{6}
н/о н/о +10.7 +10.7 100 +8 +8 1002.4 944.6
16 19.08 З 4
{7}
н/о н/о +10.9 +10.1 95 +8 +8 1003.0 945.2
17 19.08 ЮЗ 3
{5}
н/о н/о +10.7 +9.5 92 +9 +9 1003.3 945.5
18 19.08 ЮЗ 2
{7}
н/о н/о +10.1 +9.0 93 +8 +8 1003.8 945.8 +9.5 +12.6
19 19.08 ЮЗ 2
{4}
н/о н/о +10.0 +9.7 98 +8 +8 1004.2 946.1
20 19.08 ЮЗ 1
{3}
н/о н/о +9.8 +9.8 100 +9 +9 1004.8 946.7
21 19.08 ЮЗ 3
{6}
н/о н/о +10.6 +8.7 88 +9 +9 1004.9 947.0
22 19.08 ЮЗ 3
{6}
н/о н/о +10.4 +8.2 86 +8 +8 1005.2 947.3
23 19.08 ЮЗ 2
{7}
н/о н/о +10.3 +8.2 87 +9 +9 1005.7 947.7
00 20.08 ЮЗ 1
{7}
н/о н/о +9.7 +9.7 100 +9 +9 1006.3 948.1
01 20.08 штиль 0
{3}
н/о н/о +8.9 +8.9 100 +8 +8 1006.5 948.1
02 20.08 штиль 0
{3}
н/о н/о +9.0 +9.0 100 +8 +8 1006.6 948.3
03 20.08 ЮВ 1
{3}
н/о н/о +9.2 +9.2 100 +8 +8 1006.9 948.5
04 20.08 ЮЗ 1
{3}
н/о н/о +9.1 +9.1 100 +8 +8 1007.3 949.0
05 20.08 ЮЗ 1
{3}
н/о н/о +9.5 +9.2 98 +9 +9 1007.6 949.2
06 20.08 ЮЗ 4
{6}
н/о н/о +9.5 +8.4 93 +7 +7 1008.2 949.9 +8.9 +11.1
07 20.08 ЮЗ 3
{7}
н/о н/о +10.1 +8.0 87 +8 +8 1008.4 950.1
08 20.08 С 2
{6}
н/о н/о +10.8 +9.4 91 +9 +9 1008.6 950.5
09 20.08 ЮЗ 3
{7}
н/о н/о +12.5 +7.4 71 +11 +11 1008.6 950.8
10 20.08 З 4
{5}
н/о н/о +12.4 +7.9 74 +11 +11 1009.1 951.3
11 20.08 ЮЗ 4
{7}
н/о н/о +13.0 +8.1 72 +11 +11 1009.4 951.6
12 20.08 З 5
{7}
н/о н/о +12.9 +8.0 72 +11 +11 1009.8 952.0
13 20.08 З 5
{10}
н/о н/о +11.9 +9.3 84 +9 +9 1010.9 952.8
14 20.08 З 4
{8}
н/о н/о +11.8 +9.5 86 +10 +10 1011.6 953.5
15 20.08 З 6
{11}
н/о н/о +10.9 +9.0 88 +8 +8 1012.6 954.3
16 20.08 З 7
{10}
н/о н/о +10.9 +7.8 81 +7 +7 1013.2 954.9
17 20.08 З 7
{10}
н/о н/о +10.5 +7.9 84 +7 +7 1014.0 955.5
18 20.08 ЮЗ 4
{11}
н/о н/о +10.8 +7.3 79 +8 +8 1014.3 955.9 +9.4 +13.5
19 20.08 З 6
{9}
н/о н/о +10.8 +7.1 78 +8 +8 1015.2 956.7
20 20.08 З 5
{10}
н/о н/о +10.4 +6.7 78 +7 +7 1015.9 957.3
21 20.08 З 6
{10}
н/о н/о +9.6 +7.0 84 +6 +6 1016.6 957.8
22 20.08 З 6
{9}
н/о н/о +9.1 +6.4 83 +5 +5 1017.2 958.3
23 20.08 З 7
{11}
н/о н/о +9.2 +6.8 85 +5 +5 1017.7 958.7
00 21.08 З 6
{11}
н/о н/о +9.0 +6.8 86 +5 +5 1018.2 959.2
01 21.08 З 6
{10}
н/о н/о +9.0 +6.3 83 +5 +5 1018.7 959.7
02 21.08 З 5
{9}
н/о н/о +8.6 +6.4 86 +5 +5 1019.2 960.1
03 21.08 З 4
{7}
н/о н/о +9.0 +6.3 83 +6 +6 1019.5 960.4
04 21.08 З 5
{9}
н/о н/о +8.7 +6.0 83 +5 +5 1019.8 960.7
05 21.08 З 4
{7}
н/о н/о +8.9 +6.0 82 +6 +6 1020.5 961.3
06 21.08 З 4
{10}
н/о н/о +9.2 +6.1 81 +6 +6 1021.0 961.8 +8.3 +11.0
07 21.08 З 4
{6}
н/о н/о +9.5 +6.1 79 +7 +7 1021.3 962.2
08 21.08 З 4
{6}
н/о н/о +10.0 +5.6 74 +7 +7 1021.6 962.6
09 21.08 З 4
{5}
н/о н/о +10.5 +4.7 67 +8 +8 1021.8 962.9
10 21.08 ЮЗ 3
{5}
н/о н/о +10.9 +4.8 66 +9 +9 1021.8 963.0
11 21.08 З 3
{6}
н/о н/о +11.4 +4.4 62 +10 +10 1021.9 963.2
12 21.08 ЮЗ 4
{6}
н/о н/о +11.2 +4.9 65 +9 +9 1022.1 963.3
13 21.08 ЮЗ 3
{5}
н/о н/о +11.6 +5.5 66 +10 +10 1022.0 963.3
14 21.08 ЮЗ 2
{4}
н/о н/о +12.0 +5.2 63 +11 +11 1022.1 963.4
15 21.08 ЮЗ 2
{4}
н/о н/о +12.3 +5.9 65 +12 +12 1021.9 963.3
16 21.08 ЮЗ 2
{4}
н/о н/о +12.5 +5.2 61 +12 +12 1021.7 963.1
17 21.08 В 2
{3}
н/о н/о +11.8 +6.9 72 +11 +11 1021.8 963.1
18 21.08 Ю 1
{5}
н/о н/о +11.2 +7.7 79 +11 +11 1021.8 963.0 +9.2 +12.7
19 21.08 штиль 0
{1}
н/о н/о +9.6 +7.7 88 +9 +9 1022.0 962.9
20 21.08 штиль 0
{1}
н/о н/о +7.8 +7.8 100 +7 +7 1022.3 962.8
21 21.08 штиль 0
{1}
н/о н/о +6.4 +6.4 100 +5 +5 1022.5 962.7
22 21.08 штиль 0
{1}
н/о н/о +5.2 +5.2 100 +4 +4 1022.6 962.5
23 21.08 штиль 0
{2}
н/о н/о +4.9 +4.9 100 +4 +4 1022.4 962.3
00 22.08 штиль 0
{2}
н/о н/о +5.1 +5.1 100 +4 +4 1022.2 962.1
01 22.08 штиль 0
{2}
н/о н/о +5.8 +5.8 100 +5 +5 1021.6 961.7
02 22.08 В 2
{3}
н/о н/о +6.6 +6.6 100 +4 +4 1020.8 961.2
03 22.08 СВ 4
{5}
н/о н/о +7.0 +6.4 96 +3 +3 1019.9 960.4
04 22.08 СВ 3
{5}
н/о н/о +6.9 +6.9 100 +4 +4 1019.2 959.7
05 22.08 СВ 2
{5}
н/о н/о +7.4 +6.8 96 +5 +5 1018.7 959.3
06 22.08 СВ 3
{5}
н/о н/о +7.4 +7.4 100 +4 +4 1017.9 958.6 +4.4 +11.1
07 22.08 СВ 4
{5}
н/о н/о +7.5 +7.5 100 +4 +4 1017.1 957.8
08 22.08 СВ 2
{5}
н/о н/о +7.7 +7.7 100 +5 +5 1016.6 957.4
09 22.08 В 3
{5}
н/о н/о +9.0 +8.9 99 +6 +6 1015.7 956.8
10 22.08 СВ 2
{4}
н/о н/о +9.2 +8.0 92 +7 +7 1015.0 956.2
11 22.08 В 2
{5}
н/о н/о +9.3 +9.3 100 +7 +7 1014.8 956.1
12 22.08 В 2
{5}
н/о н/о +9.0 +9.0 100 +7 +7 1014.9 956.1
13 22.08 В 3
{4}
н/о н/о +10.7 +10.7 100 +8 +8 1014.4 955.9
14 22.08 В 3
{5}
н/о н/о +10.4 +10.4 100 +8 +8 1014.1 955.5
15 22.08 СВ 2
{4}
н/о н/о +11.5 +8.5 82 +10 +10 1013.7 955.4
16 22.08 В 2
{4}
н/о н/о +12.4 +9.1 80 +12 +12 1013.4 955.4
17 22.08 ЮЗ 3
{5}
н/о н/о +11.2 +8.4 83 +9 +9 1013.6 955.3
18 22.08 ЮЗ 4
{7}
н/о н/о +11.4 +6.9 74 +9 +9 1013.5 955.3 +7.4 +13.3
19 22.08 З 2
{6}
н/о н/о +11.0 +7.9 81 +10 +10 1014.1 955.7
20 22.08 З 1
{3}
н/о н/о +10.1 +8.0 87 +10 +10 1014.4 955.8
21 22.08 З 2
{3}
н/о н/о +9.7 +8.6 93 +8 +8 1014.5 955.8
22 22.08 ЮЗ 1
{4}
н/о н/о +9.2 +7.8 91 +9 +9 1014.1 955.4
23 22.08 ЮВ 1
{2}
н/о н/о +8.6 +8.6 100 +8 +8 1013.4 954.6
00 23.08 В 2
{6}
н/о н/о +8.8 +8.8 100 +7 +7 1013.2 954.4
01 23.08 СВ 1
{3}
н/о н/о +8.7 +8.7 100 +8 +8 1013.1 954.3
02 23.08 СВ 2
{3}
н/о н/о +8.4 +8.4 100 +6 +6 1013.0 954.1
03 23.08 СВ 4
{6}
н/о н/о +8.4 +8.4 100 +5 +5 1012.5 953.7
04 23.08 СВ 4
{6}
н/о н/о +8.2 +8.2 100 +5 +5 1012.4 953.5
05 23.08 СВ 2
{5}
н/о н/о +8.2 +8.2 100 +6 +6 1012.5 953.6
06 23.08 ЮВ 1
{6}
н/о н/о +8.4 +8.4 100 +7 +7 1013.2 954.3 +8.1 +11.7
07 23.08 В 1
{2}
н/о н/о +8.8 +8.8 100 +8 +8 1013.8 955.0
08 23.08 СВ 2
{3}
н/о н/о +9.2 +9.2 100 +7 +7 1014.3 955.5
09 23.08 В 2
{4}
н/о н/о +8.9 +8.9 100 +7 +7 1015.2 956.3
10 23.08 З 4
{7}
н/о н/о +10.8 +9.1 89 +8 +8 1015.5 956.9
11 23.08 З 4
{6}
н/о н/о +11.7 +8.7 82 +10 +10 1016.0 957.6
12 23.08 З 4
{7}
н/о н/о +12.0 +8.9 81 +10 +10 1016.7 958.4
13 23.08 З 2
{7}
н/о н/о +12.4 +9.2 81 +11 +11 1017.6 959.2
14 23.08 З 3
{5}
н/о н/о +12.7 +8.6 76 +11 +11 1018.1 959.8
15 23.08 З 4
{6}
н/о н/о +12.9 +8.4 74 +11 +11 1018.6 960.3
16 23.08 З 4
{6}
н/о н/о +13.3 +8.8 74 +12 +12 1018.9 960.7
17 23.08 СВ 2
{5}
н/о н/о +12.1 +9.8 86 +11 +11 1019.4 961.0

 

Местоположение метеостанции Согндал аэропорт (Норвегия): широта 61.15 долгота 7.13 высота над уровнем моря 49 м.

В архиве по умолчанию представлена погода в Согндал аэропорту за последнюю неделю. Архивные данные за месяц целиком и за предыдущие месяцы, начиная с января 2011 года, Вы можете получить, выбрав интересующий диапазон дат из раскрывающегося списка и нажав кнопку "Ввод!".


*Определитесь, кто Вы:
робот инопланетянин человек

Внимание! Время в таблицах - всемирное. Для получения местного времени необходимо прибавить поправку, которая равна 1 ч.

Смотрите также архив погоды в соседних городах и на ближайших метеорологических станциях:

Погода в Лардале (Норвегия) (21 км)
Погода в Вангснесе (Норвегия) (26 км)
Погода во Фьерлэнде (Норвегия) (36 км)
Погода в Клеваватнете (Норвегия) (48 км)
Погода в Мьолфелле (Норвегия) (51 км)
Погода в Филефеле (Норвегия) (53 км)
Погода в Мидтстове (Норвегия) (55 км)
Погода на Финсеватнете (Норвегия) (65 км)
Погода в Сонгфельсхутте (Норвегия) (66 км)
Погода в Воссевангене (Норвегия) (69 км)

Пояснения к столбцам:

Ветер - указаны скорость ветра в м/с - средняя за 10 мин, порывы в срок и между сроками (в фигурных скобках) и направление, откуда дует ветер: С - северный, СВ - северо-восточный, В - восточный, ЮВ - юго-восточный, Ю - южный, ЮЗ - юго-западный, З - западный, СЗ - северо-западный.
Видимость - горизонтальная дальность видимости в метрах или километрах. При видимости от 1 до 10 км при отсутствии осадков обычно наблюдается дымка, при ухудшении видимости до 1 км и менее - туман. В сухую погоду видимость может ухудшаться дымом, пылью или мглою.
Явления - указаны атмосферные явления, наблюдавшиеся в срок или в последний час перед сроком; фигурными скобками обозначены явления, наблюдавшиеся между сроками (за 1-3 часа до срока); квадратными скобками обозначены град или гололедные отложения с указанием их диаметра в мм.
Облачность - указаны через наклонную черту общая и нижняя облачность в баллах и высота нижней границы облаков в метрах; квадратными скобками обозначены формы облаков: Ci - перистые, Cs - перисто-слоистые, Cc - перисто-кучевые, Ac - высококучевые, As - высокослоистые, Sc - слоисто-кучевые, Ns - слоисто-дождевые, Cu - кучевые, Cb - кучево-дождевые. Подробнее классификацию облаков см. в Атласе облаков (PDF).
T - Температура воздуха - температура, измеренная на высоте 2 м над землей.
Td - Температура точки росы - температура, при понижении до которой содержащийся в воздухе водяной пар достигнет насыщения.
f - Относительная влажность воздуха - влажноcть воздуха, измеренная на высоте 2 м над землей.
Te - Эффективная температура - температура, которую ощущает одетый по сезону человек в тени. Характеристика душности погоды. При расчете учитывается влияние влажности воздуха и скорости ветра на теплоощущения человека.
Tes - Эффективная температура на солнце - температура, которую ощущает человек, с поправкой на солнечный нагрев. Характеристика знойности погоды. Зависит от высоты солнца над горизонтом, облачности и скорости ветра. Ночью, в пасмурную погоду, а также при ветре 12 м/с и более поправка равна нулю.
P - Атмосферное давление - приведенное к уровню моря атмосферное давление.
Po - Атмосферное давление - измеренное на уровне метеостанции атмосферное давление.
Tmin - Минимальная температура - минимум температуры воздуха на высоте 2 м над землей.
Tmax - Максимальная температура - максимум температуры воздуха на высоте 2 м над землей.
R - Количество осадков - Количество выпавших осадков за период времени, мм. При наведении курсора мыши на число - период времени, за который выпало указанное количество осадков.
R24 - Количество осадков - Количество выпавших осадков за 24 часа, мм.
S - Снежный покров - Высота снежного покрова, см. При наведении курсора мыши на число - состояние снежного покрова и степень покрытия местности в баллах.